{"data":{"norad_id":52501,"intl_designator":"2022-049BC","name":"STARLINK-3907","alt_names":[],"object_type":"PAYLOAD","status":"ACTIVE","operator":null,"country":"US","launch_date":"2022-05-06","launch_site_code":"AFETR","launch_vehicle":null,"mission":null,"orbit_class":"UNKNOWN","rcs_meters":null,"size_class":null,"mass_kg":null,"dimensions":null,"purposes":["comms"],"wikipedia_slug":null,"has_3d_model":false,"image_url":null,"decayed_at":null,"tle_current":{"epoch":"2026-05-25T02:23:23.781120Z","epoch_age_seconds":59816,"freshness":"FRESH","line1":"1 52501U 22049BC  26145.09958080  .00000191  00000+0  30076-4 0  9997","line2":"2 52501  53.2150  65.8996 0001408  95.0579 265.0574 15.08844694223939","mean_motion":15.08844694,"eccentricity":0.0001408,"inclination_deg":53.215,"raan_deg":65.8996,"arg_perigee_deg":95.0579,"mean_anomaly_deg":265.0574,"bstar":3.0076e-5,"rev_number":22393,"period_min":95.437257772535,"perigee_km":538.75500578254,"apogee_km":540.70307685978,"semimajor_km":6917.8660413212,"source":"CELESTRAK","updated_at":"2026-05-25T13:38:17.160156Z"}}}